Current weather by "City, St" or "zip code"  
 

Current Conditions: Fulton, Oswego County Airport, NY

Overcast


44.0 F

Last Updated on Oct 24 2020, 8:54 pm EDT
Humidity: 76%
Wind Speed: N 0.0 mph
Barometer 30.15 in
Dewpoint: 37.0 F
Visibility: 10.00 mi
Precip: --
Heat Index: NA
Wind Chill: NA
Current conditions at:

Fulton, Oswego County Airport, NY (KFZY)

Lat: 43.35083 Lon: 76.38806

Local Radar Image active severe weather and emergency alerts image image weather storm and storm spotter reports image weather observation monitoring service image
Local
Radar
Active
Alerts
Storm Reports Obs
Monitoring

Sign-up For Email & Text Message Weather Alert Notification Services



Advertise Here

Observation History for Fulton, Oswego County Airport, NY


Time Wind
(mph)
Vis
(mi)
Weather Precip (in) Temperature (F) Relative
Humidity
Wind
Chill
(F)
Heat
Index
(F)
Pressure
Air Dwpt altimeter
(in)
sea level
(mb)
Rmks
8:54 pm EDT N 0.0 10.00 Overcast -- 44.0 37.0 76% NA NA 30.15 1021.2
7:54 pm EDT N 0.0 10.00 Overcast -- 45.0 36.0 71% NA NA 30.16 1021.4
6:54 pm EDT SW 3.5 10.00 Overcast -- 45.0 35.1 68% NA NA 30.14 1020.8
5:54 pm EDT W 4.6 10.00 Overcast -- 45.0 34.0 66% 43 NA 30.13 1020.4
4:54 pm EDT NW 6.9 10.00 Overcast -- 46.0 34.0 63% 42 NA 30.12 1020.0
3:54 pm EDT NW 8.1 10.00 Overcast -- 46.0 34.0 63% 42 NA 30.11 1019.6
2:54 pm EDT NW 10.4 10.00 Overcast -- 46.0 35.1 66% 41 NA 30.10 1019.5
1:54 pm EDT N 10.4 10.00 Overcast -- 46.0 36.0 68% 41 NA 30.10 1019.1
12:54 pm EDT N 12.7 G 19.6 10.00 Overcast -- 46.0 36.0 68% 40 NA 30.10 1019.1
11:54 am EDT NW 11.5 10.00 Overcast -- 46.0 37.0 71% 41 NA 30.10 1019.3
10:54 am EDT NW 12.7 10.00 Overcast -- 46.0 37.0 71% 40 NA 30.10 1019.2
9:54 am EDT NW 12.7 10.00 Overcast -- 46.0 39.0 77% 40 NA 30.09 1018.9
8:54 am EDT W 11.5 10.00 Overcast -- 47.0 41.0 80% 42 NA 30.05 1017.7
7:54 am EDT W 16.1 10.00 Overcast 00.05 48.0 43.0 83% 42 NA 30.02 1016.6
6:54 am EDT W 15.0 G 20.7 6.00 Light Rain Fog/Mist 00.03 49.0 45.0 86% 43 NA 29.99 1015.6
5:54 am EDT NW 10.4 3.00 Light Rain Fog/Mist 00.02 51.0 48.9 92% 47 NA 29.94 1013.7
4:54 am EDT W 18.4 G 25.3 7.00 Light Rain 00.03 53.0 51.1 93% 48 NA 29.90 1012.2
3:54 am EDT W 21.9 G 31.1 9.00 Light Rain and Breezy -- 64.0 59.0 84% NA NA 29.85 1010.4
2:54 am EDT S 6.9 10.00 Light Rain Trace 64.0 60.1 87% NA NA 29.83 1009.8
1:54 am EDT S 8.1 10.00 Light Rain 00.02 65.0 60.1 84% NA NA 29.84 1010.3
12:54 am EDT SW 10.4 G 19.6 10.00 NULL -- 68.0 57.9 70% NA NA 29.85 1010.6
11:54 pm EDT S 16.1 G 23.0 10.00 NULL -- 69.0 57.9 68% NA NA 29.84 1010.0
10:54 pm EDT S 10.4 10.00 A Few Clouds -- 68.0 57.9 70% NA NA 29.84 1010.3
9:54 pm EDT S 12.7 G 23.0 10.00 Fair -- 69.0 57.0 66% NA NA 29.85 1010.5

Regional Weather Observation


Watertown, Watertown International Airport, NY (KART)

Overcast
43.0 F

Syracuse, Syracuse Hancock International Airport, NY (KSYR)

Light Drizzle
45.0 F

Rochester, Greater Rochester International Airport, NY (KROC)

Overcast
43.0 F

Griffiss Air Force Base / Rome, NY (KRME)

Overcast
44.0 F

Fort Drum / Wheeler-Sack U. S. Army Airfield, NY (KGTB)

Overcast
41.0 F

Penn Yan, Penn Yan Airport, NY (KPEO)

Overcast
43.0 F